Skip Page Navigation
NASA JPL Caltech
NASA Logo - Jet Propulsion Laboratory + View the NASA Portal
+ Center for Near-Earth Object Studies
JPL Home Earth Solar System Stars & Galaxies Technology
JPL Solar System Dynamics
BODIES ORBITS EPHEMERIDES TOOLS PHYSICAL DATA DISCOVERY FAQ SITE MAP
JPL Small-Body Database Browser
Search: [ help ]  
344421 (2002 CL182)
Classification: Main-belt Asteroid          SPK-ID: 2344421
Ephemeris | Orbit Diagram | Orbital Elements | Mission Design | Physical Parameters | Discovery Circumstances | Close-Approach Data ]

[ hide orbit diagram ]

For accurate long-term ephemerides, please instead use our Horizons system.This orbit viewer was implemented using two-body methods, and hence should not be used for determining accurate long-term trajectories (over several years or decades) or planetary encounter circumstances.


[ revert to old Java-based viewer ]

Orbital Elements at Epoch 2459000.5 (2020-May-31.0) TDB
Reference: JPL 10 (heliocentric ecliptic J2000)
 Element Value Uncertainty (1-sigma)   Units 
e .1396056579319525 6.6531e-07  
a 2.477733866695634 7.8548e-08 au
q 2.131828200055309 1.5834e-06 au
i 1.148073804631252 1.0644e-05 deg
node 141.2099640196744 0.0005676 deg
peri 59.31615557898559 0.00057302 deg
M 199.8835839728397 7.1567e-05 deg
tp 2459634.097962623370
(2022-Feb-23.59796262)
0.00030687 TDB
period 1424.558906600318
3.90
6.7741e-05
1.855e-07
d
yr
n .2527098025445174 1.2017e-08 deg/d
Q 2.823639533335959 8.9513e-08 au
  Orbit Determination Parameters
   # obs. used (total)      135  
   data-arc span      5963 days (16.33 yr)  
   first obs. used      2002-01-13  
   last obs. used      2018-05-12  
   planetary ephem.      DE431  
   SB-pert. ephem.      SB431-N16  
   condition code      0  
   norm. resid. RMS      .60601  
   source      ORB  
   producer      Otto Matic  
   solution date      2019-Jul-13 16:24:26  

Additional Information
 Earth MOID = 1.12939 au 
 Jupiter MOID = 2.13255 au 
 T_jup = 3.466 
[ show covariance matrix ]

Ephemeris | Orbit Diagram | Orbital Elements | Mission Design | Physical Parameters | Discovery Circumstances | Close-Approach Data ]

Physical Parameter Table
Parameter Symbol Value Units Sigma Reference Notes
absolute magnitude H 17.4   n/a MPO450303  

344421 (2002 CL182)          Discovered 2002-Feb-10 by LINEAR at Socorro
Reference: 20121128/Numbers.arcLast Updated: 2012-12-03

[ show close-approach data ]
Alternate Designations
 2002 CL182 = 2006 BM166 
Ephemeris | Orbit Diagram | Orbital Elements | Mission Design | Physical Parameters | Discovery Circumstances | Close-Approach Data ]
ABOUT SSD CREDITS/AWARDS PRIVACY/COPYRIGHT GLOSSARY LINKS
FirstGov 2020-Aug-04 09:53 UT
(server date/time)  
NASA Home Page
Site Manager:   Ryan S. Park
Webmaster  Alan B. Chamberlin